Regional Weather Roundup
Issued by NWS Sterling, VA

Home | Current Version | Previous Version | Graphics & Text | Print | Product List | Glossary On
Versions: 1 2 3 4 5 6 7 8 9 10 11 12 13 14 15 16 17 18 19 20 21 22 23 24 25 26 27 28 29 30 31 32 33 34 35 36 37 38 39 40 41 42 43 44 45 46 47 48 49 50
801
ASUS41 KLWX 281910
RWRLWX

REGIONAL WEATHER ROUNDUP
NATIONAL WEATHER SERVICE BALTIMORE MD/WASHINGTON DC
300 PM EDT THU APR 28 2016

Note: "FAIR" indicates few or no clouds below 12,000 feet
with no significant weather and/or obstructions to visibility.
 TC=TEMPERATURE CELSIUS

 * =Non NWS site. Station does not report precipitation (e.g. rain,
    snow, etc.), thunder, or fog.

DCZ001-MDZ009-015-VAZ040>042-051-053>054-282000-
WASHINGTON METRO

CITY           SKY/WX    TMP DP  RH WIND       PRES   REMARKS
WASHINGTON NAT DRIZZLE   55  52  89 E6        29.98F FOG
DULLES         DRIZZLE   51  49  92 NE7       29.98F FOG
ANDREWS AFB    CLOUDY    54  52  94 E6        29.97F FOG
FT BELVOIR     CLOUDY    54  52  94 E3        29.98S FOG
QUANTICO       CLOUDY    55  52  89 E7        29.98F
LEESBURG*      CLOUDY    52  52 100 E6        29.99F FOG
MANASSAS*      CLOUDY    55  54  94 SE5       29.98S
GAITHERSBURG*  CLOUDY    52  46  82 E3        30.03R

$$

MDZ006>007-011-014-282000-
BALTIMORE METRO

CITY           SKY/WX    TMP DP  RH WIND       PRES   REMARKS
BWI AIRPORT    CLOUDY    50  43  77 E16       29.99F
MD SCIENCE CTR   N/A     52  42  69 MISG      30.01S
MARTIN STATE   CLOUDY    52  46  82 E8        30.03R
ANNAPOLIS      CLOUDY    51  48  89 E14       29.99F
FORT MEADE*    CLOUDY    50  46  87 E9G16     30.01F

$$

MDZ012-015-019>023-282000-
MARYLAND EASTERN SHORE

CITY           SKY/WX    TMP DP  RH WIND       PRES   REMARKS
OCEAN CITY     LGT RAIN  50  48  93 NE12      29.99F FOG
SALISBURY      CLOUDY    50  48  93 NE12      29.98F FOG
CAMBRIDGE*     CLOUDY    50  48  93 E10       29.98S
EASTON*        CLOUDY   N/A N/A N/A E9        30.03F

$$

MDZ017>025-282000-
SOUTHERN MARYLAND

CITY           SKY/WX    TMP DP  RH WIND       PRES   REMARKS
PATUXENT RIVER DRIZZLE   53  51  93 E9        29.96F FOG
ST INIGOES     CLOUDY    54  53  97 NE8       29.95F FOG
LEONARDTOWN*   CLOUDY    52  50  93 E3        29.98F

$$

MDZ003>005-282000-
NORTH CENTRAL MARYLAND

CITY           SKY/WX    TMP DP  RH WIND       PRES   REMARKS
FREDERICK*     CLOUDY    48  45  87 NE8       30.03F FOG
HAGERSTOWN APT CLOUDY    49  41  74 NE9       29.99F
WESTMINSTER*   DRIZZLE   46  45  93 NE5       30.00S

$$

MDZ501>502-282000-
WESTERN MARYLAND

CITY           SKY/WX    TMP DP  RH WIND       PRES   REMARKS
OAKLAND*       FOG       45  45 100 SE13      29.92S VSB<1/4
CUMBERLAND*    PTSUNNY   54  50  87 E6        30.00R

$$

VAZ025>031-282000-
SHENANDOAH VALLEY

CITY           SKY/WX    TMP DP  RH WIND       PRES   REMARKS
WINCHESTER*    CLOUDY    52  50  93 E6        29.96S FOG
FRONT ROYAL*   CLOUDY    54  52  94 E8G16     29.93S
LURAY*         CLOUDY    55  55 100 N6        29.92S
NEW MARKET*    CLOUDY    54  53  97 N7        29.92S
STAUNTON*      CLOUDY    59  57  91 N16       29.93R
WAYNESBORO*    MOCLDY    61  55  81 MISG      29.89F

$$

WVZ021-048>050-054>055-282000-
EASTERN WEST VIRGINIA PANHANDLE

CITY           SKY/WX    TMP DP  RH WIND       PRES   REMARKS
MARTINSBURG    CLOUDY    49  44  83 E8        29.98S
PETERSBURG*    CLOUDY    57  54  88 N5        29.93F

$$

VAZ036>039-050-282000-
CENTRAL FOOTHILLS

CITY           SKY/WX    TMP DP  RH WIND       PRES   REMARKS
CHARLOTTESVILL CLOUDY    59  55  87 NE9       29.92F
CULPEPER*      CLOUDY    56  54  95 E3        29.96F FOG
ORANGE*        CLOUDY    57  57 100 NE5       29.96F FOG
GORDONSVILLE*  CLOUDY    58  57  96 E5        29.93F
WARRENTON*     CLOUDY    55  50  82 E7        29.95F HAZE

$$

VAZ055>057-282000-
NORTH AND CENTRAL PIEDMONT

CITY           SKY/WX    TMP DP  RH WIND       PRES   REMARKS
FREDERICKSBRG* CLOUDY    56  56 100 NE5       29.95F FOG
STAFFORD*      CLOUDY    54  52  93 NE6       30.00F FOG

$$

NCZ024-NYZ072-PAZ021-071-VAZ022-071-282000-
OTHER REGIONAL OBSERVATIONS

CITY           SKY/WX    TMP DP  RH WIND       PRES   REMARKS
NEW YORK CITY  CLOUDY    55  34  45 S8        30.06S
PHILADELPHIA   LGT RAIN  49  41  74 E10       30.04S
PITTSBURGH     DRIZZLE   51  48  89 NE8       29.88R FOG
ROANOKE        FAIR      76  64  66 E18       29.87F
RICHMOND       CLOUDY    58  57  97 E5        29.93F FOG
RALEIGH        MOSUNNY   83  67  58 SW9       29.87F

$$

ANZ530>537-282000-
MARINE OBSERVATIONS

STATION/POSITION TIME  TEMP    WIND        PRES
                       AIR SEA DIR/SP/G
                 (UTC) (F)     (DEG/KT/KT) (MB)
THOMAS PT LIGHT  1900   51 58   90/ 15/ 17 1016.5F
BALT KEY BRIDGE  1800   51      90/ 16/ 18 1016.0R
COVE POINT       1800   52     130/ 11/ 14 1015.8F
LEWISETTA        1800   54 61  110/ 12/ 15 1014.5F
SOLOMONS ISLAND  1800   53 62  100/ 11/ 12   N/A

$$





USA.gov is the U.S. government's official web portal to all federal, state and local government web resources and services.